Location: Newark
(41.0420°N, 28.9376°E)
Time: 17:03:05
(UTC+00:00)

ISS - Visible Passes

Search period start: 30 September 2020 00:00
Search period end: 10 October 2020 00:00
Orbit: 419 x 421 km, 51.6° (Epoch: 01 October)

Date Brightness Start Highest point End Pass type
(mag) Time Alt. Az. Time Alt. Az. Time Alt. Az.
30 Sep -1.5 16:44:06 10° NNW 16:46:16 16° NNE 16:48:11 11° NE visible
30 Sep -0.7 18:20:27 10° NW 18:21:09 15° NW 18:21:09 15° NW visible
01 Oct -2.3 17:33:15 10° NW 17:35:42 29° N 17:35:42 29° N visible
02 Oct -2.2 16:46:06 10° NW 16:48:55 24° NNE 16:50:17 18° ENE visible
02 Oct -0.6 18:22:37 10° WNW 18:23:16 15° WNW 18:23:16 15° WNW visible
03 Oct -3.0 17:35:17 10° NW 17:37:54 50° NW 17:37:54 50° NW visible
04 Oct -3.4 16:48:01 10° NW 16:51:19 48° NNE 16:52:37 30° E visible
04 Oct -0.3 18:25:22 10° W 18:25:36 11° W 18:25:36 11° W visible
05 Oct -2.3 17:37:37 10° WNW 17:40:25 33° SW 17:40:25 33° SW visible
06 Oct -3.3 16:50:07 10° WNW 16:53:27 59° SW 16:55:20 23° SSE visible
07 Oct -3.8 16:02:45 10° NW 16:06:08 80° NE 16:09:29 10° ESE visible
07 Oct -0.8 17:41:14 10° WSW 17:42:29 12° SW 17:43:25 11° SW visible
08 Oct -1.3 16:52:48 10° W 16:55:19 20° SW 16:57:50 10° S visible
09 Oct -2.0 16:05:01 10° WNW 16:08:05 33° SW 16:11:08 10° SSE visible
